| time (UTC) | temp F | wind direction | speed MPH | gust MPH | rain 1hr in | rain 24hr in | rain mn in | humidity % | barometer mb |
| 20260504031508 | 44 | 246 | 3.0 | 5.0 | 0.00 | 0.00 | 0.00 | 55 | 1009.4 |
| 20260504030005 | 45 | 242 | 3.0 | 6.0 | 0.00 | 0.00 | 0.00 | 54 | 1009.4 |
| 20260504024552 | 45 | 247 | 4.0 | 5.0 | 0.00 | 0.00 | 0.00 | 54 | 1009.3 |
| 20260504023044 | 45 | 251 | 3.0 | 6.0 | 0.00 | 0.00 | 0.00 | 53 | 1009.3 |
| 20260504021525 | 46 | 242 | 4.0 | 6.0 | 0.00 | 0.00 | 0.00 | 52 | 1009.1 |
| 20260504020021 | 46 | 259 | 3.0 | 5.0 | 0.00 | 0.00 | 0.00 | 52 | 1009.0 |
| 20260504014501 | 47 | 267 | 1.0 | 2.0 | 0.00 | 0.00 | 0.00 | 50 | 1009.0 |
| 20260504013100 | 47 | 275 | 2.0 | 4.0 | 0.00 | 0.00 | 0.00 | 50 | 1008.9 |
| 20260504011546 | 48 | 263 | 0.0 | 3.0 | 0.00 | 0.00 | 0.00 | 48 | 1008.9 |
| 20260504010043 | 49 | 261 | 2.0 | 6.0 | 0.00 | 0.00 | 0.00 | 46 | 1008.7 |
| 20260504004539 | 49 | 321 | 4.0 | 9.0 | 0.00 | 0.00 | 0.00 | 45 | 1008.5 |
| 20260504003037 | 50 | 286 | 4.0 | 12.0 | 0.00 | 0.00 | 0.00 | 44 | 1008.3 |
| 20260504001535 | 50 | 302 | 6.0 | 15.0 | 0.00 | 0.00 | 0.00 | 44 | 1008.1 |
| 20260504000032 | 50 | 310 | 4.0 | 13.0 | 0.00 | 0.00 | 0.00 | 42 | 1007.9 |
| 20260503234532 | 51 | 323 | 9.0 | 16.0 | 0.00 | 0.00 | 0.00 | 41 | 1007.6 |
| 20260503233034 | 51 | 306 | 11.0 | 19.0 | 0.00 | 0.00 | 0.00 | 40 | 1007.3 |
| 20260503231507 | 52 | 296 | 5.0 | 13.0 | 0.00 | 0.00 | 0.00 | 39 | 1007.1 |
| 20260503230005 | 52 | 294 | 8.0 | 20.0 | 0.00 | 0.00 | 0.00 | 39 | 1006.8 |
| 20260503224604 | 52 | 331 | 12.0 | 20.0 | 0.00 | 0.00 | 0.00 | 39 | 1006.6 |
| 20260503223051 | 52 | 339 | 9.0 | 23.0 | 0.00 | 0.00 | 0.00 | 39 | 1006.5 |
| 20260503221549 | 53 | 339 | 8.0 | 18.0 | 0.00 | 0.00 | 0.00 | 40 | 1006.3 |
| 20260503220049 | 52 | 340 | 6.0 | 18.0 | 0.00 | 0.00 | 0.00 | 43 | 1006.2 |
| 20260503214554 | 52 | 321 | 9.0 | 17.0 | 0.00 | 0.00 | 0.00 | 44 | 1006.1 |
| 20260503213047 | 52 | 334 | 11.0 | 20.0 | 0.00 | 0.00 | 0.00 | 42 | 1005.9 |
| 20260503211548 | 52 | 344 | 9.0 | 20.0 | 0.00 | 0.00 | 0.00 | 39 | 1005.6 |
| 20260503210040 | 52 | 338 | 8.0 | 18.0 | 0.00 | 0.00 | 0.00 | 41 | 1005.5 |
| 20260503204544 | 52 | 338 | 17.0 | 26.0 | 0.00 | 0.00 | 0.00 | 42 | 1005.4 |
| 20260503203019 | 53 | 326 | 10.0 | 19.0 | 0.00 | 0.00 | 0.00 | 42 | 1005.1 |
| 20260503201521 | 53 | 326 | 12.0 | 27.0 | 0.00 | 0.00 | 0.00 | 41 | 1005.0 |
| 20260503200101 | 53 | 338 | 16.0 | 25.0 | 0.00 | 0.00 | 0.00 | 43 | 1005.0 |
| 20260503194600 | 54 | 339 | 11.0 | 29.0 | 0.00 | 0.00 | 0.00 | 44 | 1005.0 |
| 20260503193052 | 54 | 259 | 9.0 | 25.0 | 0.00 | 0.00 | 0.00 | 45 | 1005.1 |
| 20260503191536 | 53 | 338 | 15.0 | 25.0 | 0.00 | 0.00 | 0.00 | 45 | 1005.2 |
| 20260503190037 | 52 | 348 | 14.0 | 20.0 | 0.00 | 0.00 | 0.00 | 49 | 1005.2 |
| 20260503184517 | 52 | 315 | 10.0 | 20.0 | 0.00 | 0.00 | 0.00 | 49 | 1005.3 |
| 20260503183110 | 51 | 336 | 12.0 | 23.0 | 0.00 | 0.00 | 0.00 | 53 | 1005.4 |
| 20260503181558 | 51 | 305 | 15.0 | 21.0 | 0.00 | 0.00 | 0.00 | 51 | 1005.4 |
| 20260503180051 | 51 | 302 | 10.0 | 20.0 | 0.00 | 0.00 | 0.00 | 54 | 1005.3 |
| 20260503174540 | 50 | 344 | 12.0 | 17.0 | 0.00 | 0.00 | 0.00 | 55 | 1005.2 |
| 20260503173021 | 49 | 351 | 6.0 | 12.0 | 0.00 | 0.00 | 0.00 | 61 | 1005.4 |
| 20260503171532 | 48 | 343 | 4.0 | 11.0 | 0.00 | 0.00 | 0.00 | 68 | 1005.5 |
| 20260503081538 | 44 | 323 | 5.0 | 8.0 | 0.00 | 0.00 | 0.00 | 88 | 1007.8 |
| 20260503071553 | 44 | 320 | 6.0 | 9.0 | 0.00 | 0.00 | 0.00 | 87 | 1008.2 |
| 20260503054506 | 46 | 348 | 4.0 | 9.0 | 0.00 | 0.00 | 0.00 | 88 | 1008.8 |
| 20260503053005 | 46 | 355 | 6.0 | 11.0 | 0.00 | 0.00 | 0.00 | 88 | 1009.0 |
| 20260503051601 | 47 | 334 | 8.0 | 11.0 | 0.00 | 0.00 | 0.00 | 89 | 1009.5 |
| 20260503050055 | 47 | 338 | 6.0 | 9.0 | 0.00 | 0.00 | 0.00 | 92 | 1009.6 |
| 20260503044553 | 47 | 321 | 4.0 | 6.0 | 0.00 | 0.00 | 0.00 | 92 | 1009.7 |
| 20260503043034 | 47 | 322 | 2.0 | 5.0 | 0.00 | 0.00 | 0.00 | 91 | 1010.1 |
| 20260503041535 | 47 | 319 | 2.0 | 5.0 | 0.00 | 0.00 | 0.00 | 91 | 1010.1 |
| 20260503040014 | 47 | 254 | 1.0 | 3.0 | 0.00 | 0.00 | 0.00 | 91 | 1010.2 |
| 20260503034516 | 47 | 290 | 1.0 | 3.0 | 0.00 | 0.00 | 0.00 | 91 | 1010.1 |
| 20260503033101 | 47 | 321 | 1.0 | 4.0 | 0.00 | 0.00 | 0.00 | 91 | 1010.1 |
| 20260503031556 | 48 | 311 | 0.0 | 3.0 | 0.00 | 0.00 | 0.00 | 91 | 1010.2 |